| time (UTC) | temp F | wind direction | speed MPH | gust MPH | rain 1hr in | rain 24hr in | rain mn in | humidity % | barometer mb |
| 20260901163024 | 90 | 221 | 1.0 | 4.0 | 0.00 | 0.00 | 0.00 | 65 | 1015.0 |
| 20260901161542 | 88 | 179 | 0.0 | 2.0 | 0.00 | 0.00 | 0.00 | 68 | 1015.1 |
| 20260901160016 | 87 | 162 | 1.0 | 4.0 | 0.00 | 0.00 | 0.00 | 68 | 1015.2 |
| 20260901154556 | 87 | 217 | 0.0 | 5.0 | 0.00 | 0.00 | 0.00 | 67 | 1015.2 |
| 20260901153034 | 89 | 158 | 0.0 | 4.0 | 0.00 | 0.00 | 0.00 | 64 | 1015.4 |
| 20260901151611 | 89 | 172 | 0.0 | 4.0 | 0.00 | 0.00 | 0.00 | 62 | 1015.3 |
| 20260901150044 | 88 | 123 | 0.0 | 5.0 | 0.00 | 0.00 | 0.00 | 64 | 1015.2 |
| 20260901144511 | 90 | 58 | 1.0 | 7.0 | 0.00 | 0.00 | 0.00 | 61 | 1015.3 |
| 20260901143117 | 89 | 186 | 2.0 | 6.0 | 0.00 | 0.00 | 0.00 | 64 | 1015.5 |
| 20260901141525 | 89 | 165 | 0.0 | 3.0 | 0.00 | 0.00 | 0.00 | 67 | 1015.4 |
| 20260901140112 | 87 | 172 | 1.0 | 4.0 | 0.00 | 0.00 | 0.00 | 70 | 1015.6 |
| 20260901134541 | 87 | 92 | 0.0 | 2.0 | 0.00 | 0.00 | 0.00 | 73 | 1015.7 |
| 20260901133010 | 86 | 78 | 0.0 | 4.0 | 0.00 | 0.00 | 0.00 | 75 | 1015.7 |
| 20260901131549 | 84 | 75 | 1.0 | 4.0 | 0.00 | 0.00 | 0.00 | 78 | 1015.8 |
| 20260901130017 | 83 | 158 | 0.0 | 3.0 | 0.00 | 0.00 | 0.00 | 82 | 1016.0 |
| 20260901124556 | 81 | 255 | 0.0 | 3.0 | 0.00 | 0.00 | 0.00 | 87 | 1016.1 |
| 20260901123024 | 79 | 57 | 0.0 | 1.0 | 0.00 | 0.00 | 0.00 | 91 | 1016.1 |
| 20260901121602 | 78 | 178 | 0.0 | 2.0 | 0.00 | 0.00 | 0.00 | 93 | 1016.3 |
| 20260901120027 | 77 | 159 | 0.0 | 3.0 | 0.00 | 0.00 | 0.00 | 94 | 1016.0 |
| 20260901114504 | 76 | 162 | 0.0 | 0.0 | 0.00 | 0.00 | 0.00 | 94 | 1016.2 |
| 20260901113055 | 76 | 26 | 0.0 | 0.0 | 0.00 | 0.00 | 0.00 | 94 | 1016.3 |
| 20260901111524 | 76 | 145 | 0.0 | 0.0 | 0.00 | 0.00 | 0.00 | 94 | 1016.2 |
| 20260901110107 | 75 | 122 | 0.0 | 0.0 | 0.00 | 0.00 | 0.00 | 94 | 1016.1 |
| 20260901104544 | 75 | 111 | 0.0 | 0.0 | 0.00 | 0.00 | 0.00 | 94 | 1015.8 |
| 20260901103005 | 75 | 134 | 0.0 | 2.0 | 0.00 | 0.00 | 0.00 | 93 | 1015.6 |
| 20260901101553 | 75 | 155 | 0.0 | 2.0 | 0.00 | 0.00 | 0.00 | 93 | 1015.7 |
| 20260901100021 | 75 | 162 | 0.0 | 0.0 | 0.00 | 0.00 | 0.00 | 93 | 1015.6 |
| 20260901094602 | 75 | 162 | 0.0 | 0.0 | 0.00 | 0.00 | 0.00 | 93 | 1015.7 |
| 20260901093036 | 75 | 169 | 0.0 | 0.0 | 0.00 | 0.00 | 0.00 | 93 | 1015.9 |
| 20260901091504 | 75 | 167 | 0.0 | 2.0 | 0.00 | 0.00 | 0.00 | 93 | 1015.8 |
| 20260901090043 | 75 | 158 | 0.0 | 2.0 | 0.00 | 0.00 | 0.00 | 93 | 1015.9 |
| 20260901084513 | 75 | 181 | 0.0 | 2.0 | 0.00 | 0.01 | 0.00 | 92 | 1015.9 |
| 20260901083054 | 75 | 155 | 0.0 | 2.0 | 0.00 | 0.01 | 0.00 | 92 | 1016.1 |
| 20260901081523 | 75 | 143 | 0.0 | 2.0 | 0.00 | 0.01 | 0.00 | 93 | 1016.0 |
| 20260901080106 | 75 | 158 | 0.0 | 3.0 | 0.00 | 0.01 | 0.00 | 92 | 1016.1 |
| 20260901074545 | 75 | 155 | 0.0 | 0.0 | 0.00 | 0.15 | 0.00 | 92 | 1016.2 |
| 20260901073001 | 75 | 163 | 0.0 | 0.0 | 0.00 | 0.15 | 0.00 | 92 | 1016.4 |
| 20260901071549 | 75 | 163 | 0.0 | 1.0 | 0.00 | 0.15 | 0.00 | 92 | 1016.3 |
| 20260901070015 | 75 | 152 | 0.0 | 2.0 | 0.00 | 0.15 | 0.00 | 92 | 1016.2 |
| 20260901064555 | 75 | 180 | 0.0 | 1.0 | 0.00 | 0.67 | 0.00 | 91 | 1016.4 |
| 20260901063018 | 75 | 157 | 0.0 | 3.0 | 0.00 | 0.67 | 0.00 | 91 | 1016.5 |
| 20260901061602 | 75 | 157 | 0.0 | 2.0 | 0.00 | 0.67 | 0.00 | 91 | 1016.6 |
| 20260901060027 | 75 | 156 | 0.0 | 0.0 | 0.00 | 0.67 | 0.00 | 90 | 1016.8 |
| 20260901054607 | 75 | 174 | 0.0 | 2.0 | 0.00 | 0.67 | 0.00 | 90 | 1017.1 |
| 20260901053040 | 75 | 173 | 0.0 | 1.0 | 0.00 | 0.67 | 0.00 | 90 | 1017.3 |
| 20260901051506 | 75 | 150 | 0.0 | 0.0 | 0.00 | 0.67 | 0.00 | 90 | 1017.3 |
| 20260901050043 | 75 | 154 | 0.0 | 1.0 | 0.00 | 0.67 | 0.00 | 90 | 1017.4 |
| 20260901044510 | 76 | 159 | 0.0 | 2.0 | 0.00 | 0.67 | 0.00 | 90 | 1017.4 |
| 20260901043108 | 76 | 179 | 0.0 | 3.0 | 0.00 | 0.67 | 0.00 | 90 | 1017.4 |
| 20260901041524 | 75 | 162 | 1.0 | 4.0 | 0.00 | 0.67 | 0.00 | 90 | 1017.5 |
| 20260901040137 | 75 | 187 | 0.0 | 2.0 | 0.00 | 0.67 | 0.00 | 90 | 1017.2 |
| 20260901034548 | 75 | 164 | 0.0 | 2.0 | 0.00 | 0.67 | 0.67 | 90 | 1017.2 |
| 20260901033014 | 75 | 163 | 0.0 | 3.0 | 0.00 | 0.67 | 0.67 | 89 | 1017.1 |
| 20260901031625 | 75 | 122 | 0.0 | 2.0 | 0.00 | 0.67 | 0.67 | 89 | 1017.2 |
| 20260901030043 | 75 | 156 | 1.0 | 6.0 | 0.00 | 0.67 | 0.67 | 89 | 1017.4 |
| 20260901024623 | 75 | 179 | 0.0 | 4.0 | 0.00 | 0.67 | 0.67 | 89 | 1017.5 |
| 20260901023044 | 75 | 211 | 0.0 | 3.0 | 0.00 | 0.67 | 0.67 | 89 | 1017.6 |
| 20260901021516 | 75 | 210 | 0.0 | 4.0 | 0.00 | 0.67 | 0.67 | 89 | 1017.6 |
| 20260901020057 | 75 | 173 | 1.0 | 4.0 | 0.00 | 0.67 | 0.67 | 89 | 1017.8 |
| 20260901014527 | 75 | 183 | 0.0 | 3.0 | 0.00 | 0.67 | 0.67 | 88 | 1017.7 |
| 20260901013110 | 75 | 186 | 2.0 | 4.0 | 0.00 | 0.67 | 0.67 | 88 | 1017.6 |
| 20260901011537 | 75 | 175 | 1.0 | 3.0 | 0.00 | 0.67 | 0.67 | 88 | 1017.7 |
| 20260901010008 | 75 | 192 | 0.0 | 2.0 | 0.00 | 0.67 | 0.67 | 88 | 1017.7 |
| 20260901004545 | 75 | 169 | 0.0 | 3.0 | 0.00 | 0.67 | 0.67 | 88 | 1017.4 |
| 20260901003007 | 75 | 199 | 1.0 | 3.0 | 0.00 | 0.67 | 0.67 | 87 | 1017.2 |
| 20260901001607 | 75 | 233 | 1.0 | 3.0 | 0.00 | 0.67 | 0.67 | 87 | 1017.5 |
| 20260901000030 | 75 | 146 | 2.0 | 4.0 | 0.00 | 0.67 | 0.67 | 86 | 1017.6 |
| 20260831234603 | 76 | 143 | 1.0 | 3.0 | 0.00 | 0.67 | 0.67 | 86 | 1017.6 |
| 20260831233033 | 76 | 194 | 2.0 | 4.0 | 0.00 | 0.67 | 0.67 | 85 | 1017.8 |
| 20260831231611 | 76 | 176 | 0.0 | 2.0 | 0.00 | 0.67 | 0.67 | 85 | 1018.0 |
| 20260831230040 | 76 | 141 | 0.0 | 2.0 | 0.00 | 0.67 | 0.67 | 84 | 1017.8 |
| 20260831224608 | 76 | 2 | 1.0 | 2.0 | 0.00 | 0.67 | 0.67 | 84 | 1017.9 |
| 20260831223037 | 76 | 162 | 0.0 | 2.0 | 0.00 | 0.67 | 0.67 | 84 | 1017.9 |
| 20260831221507 | 76 | 208 | 0.0 | 3.0 | 0.00 | 0.67 | 0.67 | 82 | 1018.0 |
| 20260831220046 | 77 | 39 | 1.0 | 3.0 | 0.00 | 0.67 | 0.67 | 82 | 1018.2 |
| 20260831214512 | 78 | 213 | 0.0 | 3.0 | 0.00 | 0.67 | 0.67 | 80 | 1018.2 |
| 20260831213059 | 77 | 257 | 1.0 | 6.0 | 0.00 | 0.67 | 0.67 | 80 | 1018.1 |
| 20260831211526 | 78 | 9 | 1.0 | 5.0 | 0.00 | 0.67 | 0.67 | 79 | 1018.2 |
| 20260831210128 | 78 | 21 | 1.0 | 4.0 | 0.00 | 0.67 | 0.67 | 81 | 1018.1 |
| 20260831204538 | 77 | 30 | 1.0 | 5.0 | 0.00 | 0.67 | 0.67 | 80 | 1018.1 |
| 20260831203014 | 78 | 163 | 2.0 | 6.0 | 0.00 | 0.67 | 0.67 | 80 | 1018.1 |
| 20260831201600 | 78 | 354 | 1.0 | 8.0 | 0.00 | 0.67 | 0.67 | 79 | 1018.1 |
| 20260831200024 | 78 | 248 | 1.0 | 5.0 | 0.00 | 0.67 | 0.67 | 80 | 1018.4 |
| 20260831194626 | 78 | 214 | 1.0 | 6.0 | 0.00 | 0.67 | 0.67 | 80 | 1018.3 |
| 20260831193028 | 79 | 203 | 1.0 | 4.0 | 0.00 | 0.67 | 0.67 | 77 | 1018.3 |
| 20260831191612 | 79 | 214 | 1.0 | 4.0 | 0.00 | 0.67 | 0.67 | 76 | 1018.5 |
| 20260831190047 | 80 | 198 | 0.0 | 4.0 | 0.00 | 0.67 | 0.67 | 76 | 1018.6 |
| 20260831184519 | 79 | 299 | 0.0 | 4.0 | 0.00 | 0.67 | 0.67 | 77 | 1018.5 |
| 20260831183103 | 80 | 207 | 0.0 | 3.0 | 0.00 | 0.67 | 0.67 | 76 | 1018.6 |
| 20260831181529 | 80 | 229 | 1.0 | 6.0 | 0.00 | 0.67 | 0.67 | 74 | 1018.7 |
| 20260831180112 | 80 | 149 | 1.0 | 4.0 | 0.00 | 0.67 | 0.67 | 75 | 1018.8 |
| 20260831174536 | 79 | 14 | 0.0 | 3.0 | 0.00 | 0.67 | 0.67 | 76 | 1018.9 |
| 20260831173008 | 79 | 243 | 1.0 | 4.0 | 0.00 | 0.67 | 0.67 | 77 | 1018.9 |
| 20260831171551 | 79 | 25 | 1.0 | 5.0 | 0.00 | 0.67 | 0.67 | 76 | 1018.8 |
| 20260831170024 | 80 | 219 | 1.0 | 3.0 | 0.00 | 0.67 | 0.67 | 74 | 1018.9 |
| 20260831164611 | 81 | 13 | 0.0 | 4.0 | 0.00 | 0.67 | 0.67 | 75 | 1018.9 |